sat.trackr.live / text

‹ back to catalog

STARLINK-3320

NORAD 50839 · 2022-001AN

PAYLOAD ACTIVE UNKNOWN

§ Identity

Operator
Country
US
Launch date
2022-01-06
Launch site
AFETR
Launch vehicle
Mass (kg)
RCS (m²)

Purposes: comms

External: N2YO · Heavens-Above · Gunter

§ Orbital elements

Epoch: 2026-05-24T20:37:40.064736Z

Period
95.44 min
Inclination
53.2118°
Eccentricity
0.0001227
Mean motion
15.08830015 rev/d
Perigee alt
538.9 km
Apogee alt
540.6 km
Semi-major
6,917.9 km
B*
1.1459e-4
RAAN
197.1806°
Arg perigee
87.9590°
Mean anomaly
272.1542°
Rev number
24,175

§ Raw data

STARLINK-33201 50839U 22001AN  26144.85949149  .00001536  00000+0  11459-3 0  99932 50839  53.2118 197.1806 0001227  87.9590 272.1542 15.08830015241752

JSON: /api/v1/satellites/50839 · /tle

For live sub-satellite position, see the globe view (requires WebGL).

§ Visibility from observer

Set your observer location to see the next 7 days of passes ≥ 10°. The values pass through the URL so the page stays shareable.

No JS? Fill the form by hand. The geolocation button needs JavaScript.